[[{"header":{"parameterUnit":"m.s-1","parameterCategory":1,"la1":30.2991,"la2":30.254,"lo1":-89.0895,"lo2":-89.0444,"dy":0.0017,"dx":0.0017,"nx":28,"ny":28,"refTime":"2024-05-17T09:00:00:Z","depth":0,"parameterNumber":2,"parameterNumberName":"U-component_of_WINDS"},"data":[0,0,0,0,0,0,0,0,0,0,0,0,0,0,0,0,0,0,0,0,0,0,0,0,0,0,0,0,0,0,0,0,0,0,0,0,0,0,0,0,0,0,0,0,0,0,0,0,0,0,0,0,0,0,0,0,0,0,-3.0847,-3.0845,0,-3.0625,-3.0622,-3.062,-3.0546,-3.0547,-3.0548,-3.0549,-3.0306,-3.0298,-3.0291,0,0,0,0,0,0,0,0,0,0,0,0,0,-3.1188,-3.1183,-3.0847,-3.0845,-3.0842,-3.0625,-3.0622,-3.0619,-3.0546,-3.0547,-3.0548,-3.055,-3.0308,-3.0299,-3.029,0,0,0,0,0,0,0,0,0,0,0,0,0,-3.101,-3.1181,-3.0848,-3.078,-3.0771,-3.0626,-3.0622,-3.0618,-3.0546,-3.0547,-3.0549,-3.055,-3.0311,-3.03,-3.0289,-3.0191,0,0,-3.0255,-3.025,0,0,0,0,0,0,0,0,-3.1021,-3.0998,-3.0792,-3.0784,-3.0774,-3.0615,-3.0653,-3.0474,-3.0545,-3.0631,-3.0549,-3.0551,-3.0406,-3.0388,-3.0342,-3.0179,-3.0169,-3.0254,-3.0248,-3.0243,-3.024,0,0,0,0,0,0,0,-3.1033,-3.1007,-3.0759,-3.0789,-3.0778,-3.0753,-3.073,-3.0619,-3.0512,-3.0624,-3.0618,-3.0593,-3.0402,-3.0353,-3.0336,-3.0165,-3.0255,-3.0245,-3.0238,-3.0234,-2.9901,-2.9899,0,0,0,0,0,0,-3.1059,-3.1018,-3.0766,-3.0752,-3.0904,-3.0746,-3.072,-3.0664,-3.0514,-3.0492,-3.0592,-3.0591,-3.0371,-3.0349,-3.0327,-3.0196,-3.0243,-3.0232,-3.0226,-2.9903,-2.9901,-2.9898,0,0,0,0,0,0,-3.1067,-3.1038,-3.0775,-3.0883,-3.0848,-3.0739,-3.0677,-3.0659,-3.0611,-3.049,-3.0469,-3.0564,-3.0372,-3.0343,-3.0224,-3.0187,-3.0227,-3.0217,-2.9906,-2.9902,-2.99,-2.9938,0,0,0,0,0,0,-3.1077,-3.1041,-3.1008,-3.0883,-3.0843,-3.0682,-3.0675,-3.0654,-3.0594,-3.059,-3.0458,-3.0437,-3.037,-3.0241,-3.0213,-3.0172,-3.0209,-2.9909,-2.9904,-2.9901,-2.994,-2.9937,-2.9934,0,0,0,0,0,-3.109,-3.1026,-3.1006,-3.0976,-3.08,-3.0681,-3.0657,-3.0586,-3.0592,-3.0553,-3.0474,-3.0441,-3.0196,-3.023,-3.0198,-3.0153,-2.9911,-2.9906,-2.9901,-2.9941,-2.9937,-2.9934,0,0,0,0,0,0,-3.1144,-3.1008,-3.0985,-3.0881,-3.0793,-3.0669,-3.0619,-3.0586,-3.0491,-3.049,-3.0402,-3.0372,-3.0259,-3.0194,-3.0234,-3.0045,-3.0051,-3.0039,-3.0092,-3.0088,-3.0085,-3.0101,-3.0199,0,0,0,0,0,-3.1145,-3.1066,-3.0949,-3.0867,-3.0825,-3.073,-3.0675,-3.0628,-3.0532,-3.0493,-3.0406,-3.0309,-3.0208,-3.0145,-3.0047,-2.993,-2.9895,-2.9882,-2.988,-2.9878,-2.9868,-2.9793,-2.9783,-2.9882,-2.9882,-2.9882,0,0,-3.1144,-3.106,-3.1015,-3.0876,-3.0803,-3.0715,-3.0699,-3.0609,-3.0541,-3.0477,-3.0361,-3.0293,-3.0177,-3.0058,-3.0001,-3.0,-2.9833,-2.9872,-2.9871,-2.9862,-2.9787,-2.9777,-2.9769,-2.9879,-2.988,-2.988,0,0,-3.1098,-3.1029,-3.0951,-3.0877,-3.0768,-3.0704,-3.0685,-3.0564,-3.0517,-3.04,-3.0348,-3.0263,-3.0095,-3.0013,-2.995,-2.9865,-2.9828,-2.9835,-2.9819,-2.9747,-2.974,-2.9732,-2.9696,-2.9684,-2.9826,-2.9826,-2.9826,0,-3.1109,-3.0982,-3.0913,-3.0825,-3.0762,-3.0704,-3.0619,-3.0549,-3.0411,-3.0365,-3.0368,-3.0152,-3.0071,-2.9927,-2.9907,-2.9859,-2.9828,-2.9849,-2.9748,-2.9739,-2.9731,-2.9695,-2.9682,-2.9828,-2.9827,-2.9827,-2.9827,0,-3.0998,-3.091,-3.0859,-3.073,-3.0661,-3.0575,-3.0486,-3.0423,-3.038,-3.0314,-3.0189,-3.0089,-2.9967,-2.993,-2.9887,-2.9777,-2.978,-2.9766,-2.9769,-2.9724,-2.9688,-2.9675,-2.9829,-2.9829,-2.9829,-2.9828,0,0,-3.0983,-3.0815,-3.0797,-3.0735,-3.0606,-3.0533,-3.044,-3.0325,-3.0269,-3.0174,-3.0088,-2.9945,-2.993,-2.9858,-2.9804,-2.9741,-2.9672,-2.9733,-2.9729,-2.9721,-2.9537,-2.9545,-2.9531,-2.9648,-2.9645,-2.9643,-2.9544,0,-3.0916,-3.0755,-3.0687,-3.0553,-3.0466,-3.0406,-3.0324,-3.0232,-3.0166,-3.0076,-3.0,-2.9898,-2.9889,-2.9844,-2.978,-2.9695,-2.9633,-2.9701,-2.9559,-2.9555,-2.9588,-2.9514,-2.9524,-2.9436,-2.9531,-2.9528,-2.9527,0,-3.0819,-3.0726,-3.0585,-3.0461,-3.0422,-3.035,-3.0234,-3.0153,-3.0043,-2.9998,-2.9916,-2.9864,-2.9755,-2.9767,-2.9611,-2.9659,-2.9596,-2.9545,-2.9539,-2.952,-2.9536,-2.9488,-2.9408,-2.9393,-2.9505,-2.9507,-2.9508,0,-3.0815,-3.0654,-3.0547,-3.0497,-3.0351,-3.0301,-3.0236,-3.013,-3.0062,-2.9958,-2.9912,-2.9796,-2.9731,-2.9639,-2.9553,-2.9572,-2.9403,-2.941,-2.9356,-2.9357,-2.9321,-2.9324,-2.9225,-2.9288,-2.9288,-2.9289,-2.9289,0,-3.0747,-3.0662,-3.0543,-3.0478,-3.0376,-3.0295,-3.0195,-3.0126,-3.003,-2.9943,-2.9883,-2.9801,-2.9696,-2.9597,-2.9529,-2.9406,-2.9378,-2.9333,-2.9315,-2.9336,-2.9342,-2.9292,-2.9294,-2.9285,-2.9286,-2.9286,-2.9287,0,-3.0727,-3.0645,-3.0524,-3.0395,-3.036,-3.0291,-3.0177,-3.0106,-3.0036,-2.9925,-2.9894,-2.9781,-2.9662,-2.9569,-2.9413,-2.9366,-2.9235,-2.9217,-2.9273,-2.9263,-2.9212,-2.9217,-2.9075,-2.9049,-2.9134,-2.9134,-2.9133,0,-3.0688,-3.062,-3.0484,-3.0424,-3.0361,-3.0265,-3.0196,-3.011,-3.0039,-2.9905,-2.9848,-2.9726,-2.9624,-2.9434,-2.9334,-2.9211,-2.9187,-2.9146,-2.9168,-2.9189,-2.9179,-2.9183,-2.9172,-2.9142,-2.9142,-2.9142,-2.9141,0,-3.0624,-3.0586,-3.0492,-3.038,-3.03,-3.0207,-3.0113,-3.0065,-2.996,-2.9881,-2.9761,-2.9682,-2.9522,-2.9398,-2.9265,-2.919,-2.9144,-2.9135,-2.9115,-2.9134,-2.9167,-2.9142,-2.9261,-2.9138,-2.9139,-2.9139,-2.9139,-2.9139,-3.0589,-3.0524,-3.0417,-3.0311,-3.0231,-3.0143,-3.0068,-2.9988,-2.9888,-2.9754,-2.9708,-2.9581,-2.9464,-2.9281,-2.9205,-2.9099,-2.9096,-2.9069,-2.9061,-2.9054,-2.9053,-2.9188,-2.9075,-2.9075,-2.9075,-2.9075,-2.9075,0,-3.0519,-3.0446,-3.035,-3.022,-3.0134,-3.0104,-2.9995,-2.9924,-2.9815,-2.9713,-2.9613,-2.9469,-2.9347,-2.9235,-2.9105,-2.9041,-2.9016,-2.9009,-2.9011,-2.8993,-2.9067,-2.9095,-2.9031,-2.9031,-2.9031,-2.9031,-2.9031,-2.9031,-3.0472,-3.0359,-3.0306,-3.0148,-3.0073,-2.9953,-2.9893,-2.9807,-2.9724,-2.9568,-2.9468,-2.9398,-2.9287,-2.9148,-2.9031,-2.9,-2.8952,-2.8949,-2.8913,-2.8983,-2.8989,-2.8994,-2.9019,-2.8941,-2.8941,-2.8847,-2.8846,-2.8845]},{"header":{"parameterUnit":"m.s-1","parameterCategory":1,"la1":30.2991,"la2":30.254,"lo1":-89.0895,"lo2":-89.0444,"dy":0.0017,"dx":0.0017,"nx":28,"ny":28,"refTime":"2024-05-17T09:00:00:Z","depth":0,"parameterNumber":3,"parameterNumberName":"V-component_of_WINDS"},"data":[0,0,0,0,0,0,0,0,0,0,0,0,0,0,0,0,0,0,0,0,0,0,0,0,0,0,0,0,0,0,0,0,0,0,0,0,0,0,0,0,0,0,0,0,0,0,0,0,0,0,0,0,0,0,0,0,0,0,-6.6357,-6.6359,0,-6.6502,-6.6504,-6.6506,-6.6481,-6.6479,-6.6476,-6.6474,-6.6618,-6.6624,-6.663,0,0,0,0,0,0,0,0,0,0,0,0,0,-6.6048,-6.6054,-6.6357,-6.6359,-6.6361,-6.6502,-6.6504,-6.6506,-6.6482,-6.6479,-6.6476,-6.6473,-6.6616,-6.6623,-6.6631,0,0,0,0,0,0,0,0,0,0,0,0,0,-6.6186,-6.6056,-6.6357,-6.6366,-6.6368,-6.6502,-6.6504,-6.6507,-6.6482,-6.6479,-6.6475,-6.6471,-6.6614,-6.6623,-6.6632,-6.6765,0,0,-6.666,-6.6664,0,0,0,0,0,0,0,0,-6.6179,-6.6198,-6.6362,-6.6365,-6.6368,-6.647,-6.6448,-6.6593,-6.6483,-6.6439,-6.6474,-6.6469,-6.6571,-6.6584,-6.6619,-6.6771,-6.6777,-6.6661,-6.6667,-6.667,-6.6673,0,0,0,0,0,0,0,-6.6169,-6.6191,-6.6414,-6.6365,-6.6368,-6.6359,-6.6374,-6.6475,-6.6524,-6.6442,-6.6441,-6.6459,-6.6572,-6.6611,-6.6623,-6.678,-6.6661,-6.6669,-6.6675,-6.6678,-6.7037,-6.7041,0,0,0,0,0,0,-6.6158,-6.6184,-6.641,-6.6419,-6.6262,-6.6367,-6.6385,-6.6441,-6.6523,-6.6532,-6.6462,-6.6457,-6.6597,-6.6612,-6.6628,-6.6782,-6.667,-6.6679,-6.6684,-6.7033,-6.7038,-6.7042,0,0,0,0,0,0,-6.6151,-6.6178,-6.6404,-6.6301,-6.6329,-6.6377,-6.644,-6.6446,-6.6484,-6.6538,-6.6546,-6.6493,-6.6594,-6.6614,-6.6729,-6.6786,-6.6683,-6.6692,-6.7028,-6.7034,-6.704,-6.7095,0,0,0,0,0,0,-6.6143,-6.6176,-6.623,-6.6302,-6.6334,-6.6506,-6.6444,-6.6451,-6.6501,-6.6496,-6.6569,-6.6577,-6.6593,-6.6715,-6.6738,-6.6797,-6.6699,-6.7023,-6.7031,-6.7038,-6.7088,-6.7102,-6.7114,0,0,0,0,0,-6.6132,-6.6241,-6.6233,-6.6261,-6.6403,-6.651,-6.6528,-6.6545,-6.6506,-6.6558,-6.6591,-6.6575,-6.6777,-6.6727,-6.6753,-6.6816,-6.702,-6.7029,-6.7037,-6.7082,-6.7099,-6.7114,0,0,0,0,0,0,-6.6176,-6.6251,-6.6243,-6.638,-6.6438,-6.6505,-6.6572,-6.6563,-6.6634,-6.6626,-6.6642,-6.6659,-6.6773,-6.6806,-6.6749,-6.6943,-6.6892,-6.6907,-6.6917,-6.6934,-6.6947,-6.6935,-6.6707,0,0,0,0,0,-6.6201,-6.6283,-6.6344,-6.6458,-6.6488,-6.6525,-6.6572,-6.6579,-6.664,-6.6664,-6.6706,-6.6764,-6.6839,-6.6889,-6.6962,-6.7093,-6.7104,-6.7148,-6.7161,-6.7171,-6.7183,-6.7246,-6.7264,-6.7071,-6.7071,-6.7071,0,0,-6.6255,-6.6306,-6.6358,-6.6468,-6.6515,-6.6595,-6.6546,-6.6636,-6.6694,-6.6678,-6.6786,-6.6819,-6.6883,-6.7004,-6.7059,-6.7035,-6.7238,-6.7183,-6.7191,-6.7196,-6.7257,-6.7275,-6.7291,-6.7077,-6.7076,-6.7075,0,0,-6.6393,-6.6443,-6.6539,-6.6585,-6.6655,-6.6677,-6.67,-6.6767,-6.6788,-6.6897,-6.6884,-6.6952,-6.7084,-6.7128,-6.7168,-6.7313,-6.7298,-6.7337,-6.7403,-6.7464,-6.7479,-6.7492,-6.7538,-6.7555,-6.7348,-6.7348,-6.7348,0,-6.645,-6.6574,-6.659,-6.6678,-6.6724,-6.6712,-6.6806,-6.685,-6.6939,-6.6969,-6.6941,-6.7101,-6.7144,-6.7271,-6.7305,-6.734,-6.7362,-6.7328,-6.7476,-6.749,-6.7502,-6.7546,-6.7563,-6.7352,-6.7352,-6.7351,-6.7351,0,-6.6637,-6.6722,-6.6791,-6.6876,-6.6929,-6.7021,-6.7046,-6.7098,-6.7099,-6.7122,-6.7229,-6.728,-6.7359,-6.739,-6.7394,-6.7515,-6.7497,-6.7473,-6.7421,-6.7524,-6.7564,-6.7582,-6.7357,-6.7356,-6.7355,-6.7354,0,0,-6.681,-6.6897,-6.6922,-6.6956,-6.7029,-6.7093,-6.718,-6.7257,-6.7298,-6.7359,-6.7428,-6.7536,-6.7511,-6.7556,-6.7563,-6.7618,-6.772,-6.7585,-6.7587,-6.7604,-6.7848,-6.7863,-6.7883,-6.7711,-6.7715,-6.7717,-6.7841,0,-6.695,-6.7105,-6.7118,-6.7256,-6.733,-6.7316,-6.739,-6.744,-6.7463,-6.7526,-6.7551,-6.7624,-6.759,-6.7616,-6.7669,-6.7696,-6.7768,-6.7688,-6.7771,-6.7773,-6.7751,-6.7905,-6.7923,-6.8037,-6.7858,-6.7861,-6.7863,0,-6.7136,-6.7198,-6.7343,-6.7396,-6.7428,-6.7496,-6.7562,-6.7625,-6.7678,-6.769,-6.7737,-6.7734,-6.7818,-6.7764,-6.7876,-6.7821,-6.7855,-6.7872,-6.7877,-6.7883,-6.7822,-6.791,-6.8075,-6.809,-6.7889,-6.7887,-6.7885,0,-6.7238,-6.736,-6.7459,-6.749,-6.7558,-6.7604,-6.7634,-6.7684,-6.7726,-6.7784,-6.781,-6.7878,-6.7914,-6.7964,-6.7977,-6.7938,-6.8085,-6.8035,-6.8093,-6.8092,-6.8123,-6.8121,-6.8292,-6.8153,-6.8152,-6.8152,-6.8152,0,-6.7391,-6.7478,-6.7505,-6.7567,-6.7661,-6.7673,-6.7766,-6.7793,-6.7836,-6.7898,-6.7891,-6.7949,-6.7965,-6.8024,-6.8035,-6.8121,-6.8139,-6.8147,-6.8148,-6.8146,-6.8144,-6.8166,-6.8157,-6.8157,-6.8156,-6.8155,-6.8154,0,-6.7522,-6.7545,-6.7651,-6.7704,-6.7719,-6.7786,-6.7829,-6.7885,-6.7905,-6.7983,-6.8002,-6.8032,-6.8101,-6.812,-6.8203,-6.821,-6.831,-6.8306,-6.8292,-6.829,-6.8345,-6.8337,-6.8533,-6.8556,-6.8407,-6.8408,-6.8409,0,-6.7616,-6.7682,-6.774,-6.7781,-6.7812,-6.788,-6.7921,-6.7934,-6.7977,-6.8038,-6.8085,-6.8153,-6.8208,-6.8317,-6.8344,-6.8406,-6.84,-6.8464,-6.8409,-6.8402,-6.8394,-6.8388,-6.8391,-6.8474,-6.8475,-6.8477,-6.8478,0,-6.7778,-6.7784,-6.7846,-6.7909,-6.7959,-6.801,-6.8058,-6.8092,-6.811,-6.8158,-6.8228,-6.827,-6.8352,-6.8417,-6.8477,-6.8504,-6.8492,-6.8495,-6.851,-6.8506,-6.8493,-6.8495,-6.8315,-6.849,-6.8489,-6.8488,-6.8487,-6.8487,-6.789,-6.7944,-6.7992,-6.8058,-6.8095,-6.8138,-6.8191,-6.8215,-6.8274,-6.8342,-6.8345,-6.8418,-6.8462,-6.8542,-6.8572,-6.8627,-6.8607,-6.8632,-6.8637,-6.8641,-6.8643,-6.8487,-6.8639,-6.8638,-6.8638,-6.8638,-6.8637,0,-6.8046,-6.8074,-6.8135,-6.8201,-6.8251,-6.8236,-6.8286,-6.8328,-6.8394,-6.8436,-6.8488,-6.8564,-6.8625,-6.8655,-6.8715,-6.8752,-6.8748,-6.8767,-6.8762,-6.8767,-6.8661,-6.8638,-6.8769,-6.8769,-6.8769,-6.8769,-6.8769,-6.8769,-6.8133,-6.8222,-6.8232,-6.8337,-6.8364,-6.8436,-6.8465,-6.8503,-6.8535,-6.862,-6.8671,-6.869,-6.8725,-6.8786,-6.8839,-6.8846,-6.8866,-6.8887,-6.889,-6.8789,-6.8776,-6.8763,-6.8742,-6.8892,-6.8892,-6.8991,-6.8992,-6.8993]}]]